Regional Weather Roundup
Issued by NWS

Home | Current Version | Previous Version | Graphics & Text | Print | Product List | Glossary On
Versions: 1 2 3 4 5 6 7 8 9 10 11 12 13 14 15 16 17 18 19 20 21 22 23 24 25 26 27 28 29 30 31 32 33 34 35 36 37 38 39 40 41 42 43 44 45 46 47 48 49 50
000
ASUS45 KABQ 271810
RWRNM
NEW MEXICO REGIONAL WEATHER ROUNDUP
NATIONAL WEATHER SERVICE ALBUQUERQUE NM
1200 PM MDT THU JUL 27 2017

NOTE: "FAIR" MEANS FEW OR NO CLOUDS BELOW 12,000 FEET AGL WITH NO
       SIGNIFICANT WEATHER OR OBSTRUCTIONS TO VISION.

      THIS PRODUCT IS RELEASED AS TWO VERSIONS.  ONE VERSION NEAR
      THE TOP OF THE HOUR CONTAINING PRELIMINARY DATA FROM ALBUQUERQUE
      AND OTHER STATIONS.  A FINAL VERSION WITH ADDITIONAL DATA IS
      ISSUED ABOUT 10 MINUTES AFTER THE HOUR.

NMZ501-503-504-510>518-271900-
NORTHWEST PLATEAU/NORTHCENTRAL MOUNTAINS

CITY           SKY/WX    TMP DP  RH WIND       PRES   REMARKS
FARMINGTON     FAIR      84  54  35 CALM      30.20F
6HR MIN TEMP:  61; 6HR MAX TEMP:  85;

LOS ALAMOS     FAIR      75  55  49 SE3G9     30.37F
SANTA FE       FAIR      80  57  45 S8G16     30.31F
6HR MIN TEMP:  66; 6HR MAX TEMP:  80;

TAOS           PTSUNNY   75  54  46 W7        30.37F
ANGEL FIRE     FAIR      70  56  59 W13       30.46S

$$
NMZ402-403-502-505>509-271900-
WESTCENTRAL MOUNTAINS/SOUTHWEST MOUNTAINS

CITY           SKY/WX    TMP DP  RH WIND       PRES   REMARKS
GALLUP         FAIR      83  50  31 VRB3      30.28F
6HR MIN TEMP:  57; 6HR MAX TEMP:  85;

GRANTS         FAIR      82  50  32 SE14G20   30.32F
SILVER CITY    FAIR      82  59  44 NE3       30.23F

$$
NMZ407-409-411-412-271900-
SOUTHERN DESERTS

CITY           SKY/WX    TMP DP  RH WIND       PRES   REMARKS
DEMING         PTSUNNY   87  63  44 E13       30.15S
6HR MIN TEMP:  71; 6HR MAX TEMP:  87;

LAS CRUCES     FAIR      87  60  39 N14       30.16F
HOLLOMAN AFB   FAIR      93  59  31 W6        30.14F
ALAMOGORDO     FAIR      90  57  33 NW7       30.13F
T OR C         FAIR      80  63  55 N9        30.20F
6HR MIN TEMP:  71; 6HR MAX TEMP:  80; 6HR PCP: TRACE;


$$
NMZ519>523-271900-
CENTRAL VALLEYS/CENTRAL HIGHLANDS

CITY           SKY/WX    TMP DP  RH WIND       PRES   REMARKS
ALBUQUERQUE    PTSUNNY   75  57  53 S8        30.26F
6HR MIN TEMP:  70; 6HR MAX TEMP:  76; 6HR PCP: TRACE;

DOUBLE EAGLE   PTSUNNY   73  57  56 S3        30.30F
MORIARTY ARPT  FAIR      70  61  72 S3        30.35F
6HR MIN TEMP:  64; 6HR MAX TEMP:  70; 6HR PCP:  0.04;

CLINES CORNERS FAIR      71  54  54 CALM      30.39F
6HR MIN TEMP:  61; 6HR MAX TEMP:  71; 6HR PCP: TRACE;

BELEN          PTSUNNY   78  60  53 SE5       30.23F
6HR MIN TEMP:  70; 6HR MAX TEMP:  78;

SOCORRO        PTSUNNY   82  60  46 CALM      30.22F
6HR MIN TEMP:  69; 6HR MAX TEMP:  83;


$$
NMZ524>526-539-540-271900-
SOUTHCENTRAL MOUNTAINS

CITY           SKY/WX    TMP DP  RH WIND       PRES   REMARKS
RUIDOSO        FAIR      75  55  50 N7        30.38F

$$
NMZ527>531-271900-
NORTHEAST HIGHLANDS/NORTHEAST PLAINS

CITY           SKY/WX    TMP DP  RH WIND       PRES   REMARKS
LAS VEGAS      FAIR      71  58  63 SW15      30.36F
6HR MIN TEMP:  61; 6HR MAX TEMP:  72; 6HR PCP: TRACE;

RATON          PTSUNNY   74  61  63 CALM      30.29F
6HR MIN TEMP:  62; 6HR MAX TEMP:  75;

CLAYTON        PTSUNNY   76  65  68 NE6       30.25R
6HR MIN TEMP:  63; 6HR MAX TEMP:  76; 6HR PCP:  0.18;


$$
NMZ532>537-271900-
EASTCENTRAL PLAINS

CITY           SKY/WX    TMP DP  RH WIND       PRES   REMARKS
SANTA ROSA     FAIR      80  61  51 CALM      30.23F
TUCUMCARI      FAIR      84  63  49 NE5       30.17R
6HR MIN TEMP:  72; 6HR MAX TEMP:  84; 6HR PCP: TRACE;

CANNON AFB     FAIR      81  64  56 SE3       30.22F
6HR MIN TEMP:  69; 6HR MAX TEMP:  82;

CLOVIS AIRPORT FAIR      82  63  52 SE9       30.21F

$$
NMZ028-029-538-271900-
SOUTHEAST PLAINS

CITY           SKY/WX    TMP DP  RH WIND       PRES   REMARKS
ROSWELL        FAIR      89  56  32 N8        30.13F
6HR MIN TEMP:  72; 6HR MAX TEMP:  89; 6HR PCP: TRACE;

ARTESIA        FAIR      90  59  35 NE8G16    30.12F
CARLSBAD       FAIR      86  63  45 N8        30.09F
6HR MIN TEMP:  72; 6HR MAX TEMP:  86;

HOBBS          MOSUNNY   90  52  27 E8        30.14F


$$




USA.gov is the U.S. government's official web portal to all federal, state and local government web resources and services.